(212740) = 2007 RZ273

Discovered at Kitt Peak on 2007-09-15 by Spacewatch.

Orbit

Orbit type: Main Belt

Note: WebGL enabled browser required.

epoch2024-03-31.0
epoch JD2460400.5
perihelion date2022-12-16.09823
perihelion JD2459929.59823
argument of perihelion (°)219.73916
ascending node (°)204.27452
inclination (°)6.71009
eccentricity0.0659444
perihelion distance (AU)2.2296219
Tisserand w.r.t. Jupiter3.5
ΔV w.r.t. Earth (km/sec)9.5
semimajor axis (AU)2.3870334
mean anomaly (°)125.84803
mean daily motion (°/day)0.26724900
aphelion distance (AU)2.544
period (years)3.69
P-vector [x]0.43995679
P-vector [y]0.85077432
P-vector [z]0.28743882
Q-vector [x]-0.89673326
Q-vector [y]0.43333558
Q-vector [z]0.08994299
absolute magnitude16.98
phase slope0.15
uncertainty0
referenceMPEC 2024-F50
observations used417
oppositions14
arc length (days)8513
first opposition used2000
last opposition used2024
residual rms (arc-secs)0.74
perturbers coarse indicatorM-v
perturbers precise indicator003Ek
first observation date used2000-11-27.0
last observation date used2024-03-19.0
computer nameMPCLINUX
JD of orbit computation2456937.322207
perihelion JD uncertainty (days)1.6310E-04
argument of perihelion uncertainty (°)5.0629E-05
ascending node uncertainty (°)2.9629E-05
inclination uncertainty (°)6.4056E-06
eccentricity uncertainty 4.6111E-08
perihelion distance uncertainty (AU)1.1335E-07
Minimum Orbit Intersection Distances (in AU)
for orbit epoch: 2460400.5, reference: E2024-G51
Mercury1.91945
Venus1.5095
Earth1.24652
Mars0.71212
Jupiter2.65054
Saturn6.80799
Uranus16.0194
Neptune27.5647

Observations

421 total observations over interval: 2000 11 27.30564 – 2024 03 19.528529
These data are available for download (format description).

Date (UT) J2000 RA J2000 Dec Magn Location Ref
2000 11 27.30564 05 10 01.92 +14 05 47.8   704 – Lincoln Laboratory ETS, New Mexico MPS 406939
2000 11 27.32014 05 10 00.99 +14 05 43.8   704 – Lincoln Laboratory ETS, New Mexico MPS 406939
2000 11 27.33464 05 10 00.08 +14 05 41.1   704 – Lincoln Laboratory ETS, New Mexico MPS 406939
2000 11 27.34913 05 09 59.29 +14 05 35.7   704 – Lincoln Laboratory ETS, New Mexico MPS 406939
2002 04 06.19529 14 16 42.10 -12 53 25.7 18.2 R 807 – Cerro Tololo Observatory, La Serena MPS 218835
2002 04 06.33385 14 16 35.54 -12 52 28.8   807 – Cerro Tololo Observatory, La Serena MPS 218835
2002 04 19.27575 14 05 41.99 -11 16 29.8 20.5 V 291 – LPL/Spacewatch II MPS 218835
2002 04 19.30964 14 05 40.09 -11 16 14.3 20.7 V 291 – LPL/Spacewatch II MPS 218835
2002 04 19.33182 14 05 38.84 -11 16 03.7 20.5 V 291 – LPL/Spacewatch II MPS 218835
2006 05 06.41066 16 49 06.99 -15 50 53.1 19.9 V G96 – Mt. Lemmon Survey MPS 218835
2006 05 06.41383 16 49 06.85 -15 50 52.6 19.6 V G96 – Mt. Lemmon Survey MPS 218835
2006 05 06.41698 16 49 06.67 -15 50 51.6 19.8 V G96 – Mt. Lemmon Survey MPS 218835
2006 05 06.42031 16 49 06.56 -15 50 50.7 19.9 V G96 – Mt. Lemmon Survey MPS 218835
2006 05 06.42814 16 49 06.27 -15 50 48.4 20.1 V G96 – Mt. Lemmon Survey MPS 218835
2006 05 06.43133 16 49 06.09 -15 50 47.4 19.9 V G96 – Mt. Lemmon Survey MPS 218835
2006 05 06.43469 16 49 05.95 -15 50 46.5 19.7 V G96 – Mt. Lemmon Survey MPS 218835
2006 05 06.43786 16 49 05.80 -15 50 45.6 19.8 V G96 – Mt. Lemmon Survey MPS 218835
2006 05 26.34830 16 31 59.30 -14 16 35.9 19.7 V G96 – Mt. Lemmon Survey MPS 218835
2006 05 26.35339 16 31 58.98 -14 16 34.5 19.5 V G96 – Mt. Lemmon Survey MPS 218835
2006 05 26.35859 16 31 58.69 -14 16 33.1 19.5 V G96 – Mt. Lemmon Survey MPS 218835
2006 05 26.36367 16 31 58.40 -14 16 32.0 19.5 V G96 – Mt. Lemmon Survey MPS 218835
2007 09 15.45778 01 14 40.99 +11 08 44.1   691 – Steward Observatory, Kitt Peak-Spacewatch MPS 217844
2007 09 15.47541 01 14 40.40 +11 08 37.8   691 – Steward Observatory, Kitt Peak-Spacewatch MPS 217844
2007 09 15.49306 01 14 39.81 +11 08 31.4   691 – Steward Observatory, Kitt Peak-Spacewatch MPS 217844
2007 09 19.47117 01 12 23.68 +10 43 37.8 19.8 V 691 – Steward Observatory, Kitt Peak-Spacewatch MPS 217844
2007 09 19.48631 01 12 23.10 +10 43 31.7 19.8 V 691 – Steward Observatory, Kitt Peak-Spacewatch MPS 217844
2007 09 19.50144 01 12 22.51 +10 43 25.6 19.7 V 691 – Steward Observatory, Kitt Peak-Spacewatch MPS 217844
2007 09 20.32442 01 11 52.00 +10 37 53.3 20.4 V 703 – Catalina Sky Survey MPS 218155
2007 09 20.33154 01 11 51.79 +10 37 50.4 20.2 V 703 – Catalina Sky Survey MPS 218155
2007 09 20.33867 01 11 51.39 +10 37 47.0 19.6 V 703 – Catalina Sky Survey MPS 218155
2007 09 20.34580 01 11 51.14 +10 37 45.2 20.5 V 703 – Catalina Sky Survey MPS 218155
2007 09 24.42333 01 09 05.96 +10 08 23.2 19.6 V 691 – Steward Observatory, Kitt Peak-Spacewatch MPS 218155
2007 09 24.44096 01 09 05.18 +10 08 15.0 19.7 V 691 – Steward Observatory, Kitt Peak-Spacewatch MPS 218155
2007 09 24.45860 01 09 04.39 +10 08 06.8 19.6 V 691 – Steward Observatory, Kitt Peak-Spacewatch MPS 218155
2007 10 04.18374 01 01 28.84 +08 47 41.1   691 – Steward Observatory, Kitt Peak-Spacewatch MPS 218155
2007 10 04.20131 01 01 28.00 +08 47 31.6   691 – Steward Observatory, Kitt Peak-Spacewatch MPS 218155
2007 10 04.21888 01 01 27.07 +08 47 22.0   691 – Steward Observatory, Kitt Peak-Spacewatch MPS 218155
2007 10 08.27447 00 58 01.56 +08 10 47.8 19.9   704 – Lincoln Laboratory ETS, New Mexico MPS 218835
2007 10 08.28553 00 58 01.05 +08 10 41.7 20.1   704 – Lincoln Laboratory ETS, New Mexico MPS 218835
2007 10 08.29651 00 58 00.43 +08 10 35.4 19.9   704 – Lincoln Laboratory ETS, New Mexico MPS 218835
2007 10 14.21563 00 52 59.78 +07 15 55.7 20.1   704 – Lincoln Laboratory ETS, New Mexico MPS 220686
2007 10 14.22672 00 52 59.20 +07 15 51.8 20.2   704 – Lincoln Laboratory ETS, New Mexico MPS 220686
2007 10 14.23777 00 52 58.65 +07 15 45.9 20.3   704 – Lincoln Laboratory ETS, New Mexico MPS 220686
2007 10 14.24884 00 52 58.05 +07 15 37.9 19.9   704 – Lincoln Laboratory ETS, New Mexico MPS 220686
2007 10 14.28914 00 52 56.02 +07 15 16.4 19.5 V G96 – Mt. Lemmon Survey MPS 220686
2007 10 14.29745 00 52 55.59 +07 15 11.8 19.5 V G96 – Mt. Lemmon Survey MPS 220686
2007 10 14.30607 00 52 55.12 +07 15 06.7 19.5 V G96 – Mt. Lemmon Survey MPS 220686
2007 10 14.31446 00 52 54.69 +07 15 02.3 19.4 V G96 – Mt. Lemmon Survey MPS 220686
2007 10 15.14248 00 52 13.71 +07 07 23.8 19.9 V 691 – Steward Observatory, Kitt Peak-Spacewatch MPS 220686
2007 10 15.16012 00 52 12.79 +07 07 13.7 19.8 V 691 – Steward Observatory, Kitt Peak-Spacewatch MPS 220686
2007 10 15.17776 00 52 11.90 +07 07 03.9 19.6 V 691 – Steward Observatory, Kitt Peak-Spacewatch MPS 220686
2007 10 20.21155 00 48 09.21 +06 21 13.9 20.1 V 703 – Catalina Sky Survey MPS 222586
2007 10 20.21598 00 48 08.89 +06 21 10.9 19.8 V 703 – Catalina Sky Survey MPS 222586
2007 10 20.22042 00 48 08.82 +06 21 09.1 19.7 V 703 – Catalina Sky Survey MPS 222586
2007 10 20.22480 00 48 08.46 +06 21 07.0 20.9 V 703 – Catalina Sky Survey MPS 222586
2007 10 20.25468 00 48 07.14 +06 20 51.2 19.7   704 – Lincoln Laboratory ETS, New Mexico MPS 222586
2007 10 20.28887 00 48 05.44 +06 20 32.3 20.0   704 – Lincoln Laboratory ETS, New Mexico MPS 222586
2007 10 20.30024 00 48 04.89 +06 20 27.3 20.4   704 – Lincoln Laboratory ETS, New Mexico MPS 222586
2007 10 31.19656 00 40 43.06 +04 49 51.5 19.5 V 703 – Catalina Sky Survey MPS 223528
2007 10 31.20312 00 40 42.70 +04 49 50.3 19.0 V 703 – Catalina Sky Survey MPS 223528
2007 10 31.20957 00 40 42.60 +04 49 46.8 20.1 V 703 – Catalina Sky Survey MPS 223528
2007 10 31.21603 00 40 42.24 +04 49 43.6 20.3 V 703 – Catalina Sky Survey MPS 223528
2007 12 06.13360 00 38 26.62 +02 38 03.9 20.6 V G96 – Mt. Lemmon Survey MPS 229865
2007 12 06.14042 00 38 26.84 +02 38 03.8 21.0 V G96 – Mt. Lemmon Survey MPS 229865
2007 12 06.14725 00 38 26.98 +02 38 04.0 20.7 V G96 – Mt. Lemmon Survey MPS 229865
2007 12 06.15410 00 38 27.16 +02 38 04.0 20.6 V G96 – Mt. Lemmon Survey MPS 229865
2009 02 26.32908 11 09 36.61 -02 27 35.9 19.7   704 – Lincoln Laboratory ETS, New Mexico MPS 277617
2009 02 26.34029 11 09 35.87 -02 27 30.8 20.1   704 – Lincoln Laboratory ETS, New Mexico MPS 277617
2009 02 26.35134 11 09 35.39 -02 27 26.5 19.6   704 – Lincoln Laboratory ETS, New Mexico MPS 277617
2009 02 26.36237 11 09 34.82 -02 27 21.0 19.8   704 – Lincoln Laboratory ETS, New Mexico MPS 277617
2009 03 01.35191 11 06 59.04 -02 05 08.7 19.9 V G96 – Mt. Lemmon Survey MPS 278722
2009 03 01.35875 11 06 58.68 -02 05 05.6 20.1 V G96 – Mt. Lemmon Survey MPS 278722
2009 03 01.36564 11 06 58.28 -02 05 02.5 20.0 V G96 – Mt. Lemmon Survey MPS 278722
2009 03 01.37250 11 06 57.88 -02 04 59.7 19.8 V G96 – Mt. Lemmon Survey MPS 278722
2009 03 25.25510 10 47 21.12 +01 12 46.4 20.2 V G96 – Mt. Lemmon Survey MPS 281326
2009 03 25.26194 10 47 20.83 +01 12 49.7 20.3 V G96 – Mt. Lemmon Survey MPS 281326
2009 03 25.26857 10 47 20.54 +01 12 53.2 20.5 V G96 – Mt. Lemmon Survey MPS 281326
2009 03 25.30811 10 47 18.92 +01 13 12.1 20.6 V G96 – Mt. Lemmon Survey MPS 281326
2011 10 22.47577 04 45 05.07 +16 58 13.2 20.3 V 691 – Steward Observatory, Kitt Peak-Spacewatch MPS 397923
2011 10 22.49355 04 45 04.82 +16 58 07.8 20.3 V 691 – Steward Observatory, Kitt Peak-Spacewatch MPS 397923
2011 10 22.51132 04 45 04.56 +16 58 01.9 20.0 V 691 – Steward Observatory, Kitt Peak-Spacewatch MPS 397923
2011 10 26.42469 04 44 03.060 +16 37 09.39 20.5 w F51 – Pan-STARRS 1, Haleakala MPS 397923
2011 10 26.43920 04 44 02.741 +16 37 04.38 20.5 w F51 – Pan-STARRS 1, Haleakala MPS 397923
2011 10 26.45377 04 44 02.414 +16 36 59.64 20.7 w F51 – Pan-STARRS 1, Haleakala MPS 397923
2011 10 26.46833 04 44 02.095 +16 36 54.96 20.7 w F51 – Pan-STARRS 1, Haleakala MPS 397923
2011 11 22.33024 04 24 54.92 +13 57 35.7 19.7   704 – Lincoln Laboratory ETS, New Mexico MPS 402173
2011 11 22.34294 04 24 54.07 +13 57 30.4 19.7   704 – Lincoln Laboratory ETS, New Mexico MPS 402173
2011 11 22.35583 04 24 53.28 +13 57 25.9 19.6   704 – Lincoln Laboratory ETS, New Mexico MPS 402173
